This is the latest recevied weather packets stored in our database for station/object S51UL-6. If no packets are shown the sender has not sent any weather packets the latest 10 day(s).
| Time | Temp. | Humidity | Pressure | Rain* | Wind** | Luminosity | Snow |
|---|---|---|---|---|---|---|---|
| 1777875832 | 11.67° C | 80% | 1017.6 hPa | 0 mm | - | - | - |
| 1777874934 | 10.56° C | 83% | 1017.6 hPa | 0 mm | - | - | - |
| 1777874632 | 10.56° C | 83% | 1017.6 hPa | 0 mm | - | - | - |
| 1777873732 | 8.89° C | 84% | 1017.7 hPa | 0 mm | - | - | - |
| 1777873434 | 8.33° C | 84% | 1017.6 hPa | 0 mm | - | - | - |
| 1777873132 | 8.33° C | 83% | 1017.7 hPa | 0 mm | - | - | - |
| 1777872832 | 7.78° C | 83% | 1017.6 hPa | 0 mm | - | - | - |
| 1777872532 | 7.78° C | 83% | 1017.7 hPa | 0 mm | - | - | - |
| 1777871932 | 7.78° C | 84% | 1017.8 hPa | 0 mm | - | - | - |
| 1777871633 | 7.22° C | 84% | 1017.6 hPa | 0 mm | - | - | - |
| 1777871334 | 7.22° C | 84% | 1017.8 hPa | 0 mm | - | - | - |
| 1777870732 | 6.67° C | 83% | 1017.6 hPa | 0 mm | - | - | - |
| 1777869835 | 6.11° C | 83% | 1017.4 hPa | 0 mm | - | - | - |
| 1777869532 | 6.11° C | 82% | 1017.5 hPa | 0 mm | - | - | - |
| 1777868633 | 5.56° C | 82% | 1017.5 hPa | 0 mm | - | - | - |
| 1777867132 | 6.11° C | 81% | 1017.5 hPa | 0 mm | - | - | - |
| 1777866833 | 6.11° C | 81% | 1017.3 hPa | 0 mm | - | - | - |
| 1777866233 | 6.11° C | 81% | 1017.3 hPa | 0 mm | - | - | - |
| 1777865334 | 6.67° C | 81% | 1017.3 hPa | 0 mm | - | - | - |
| 1777864133 | 6.67° C | 80% | 1017.4 hPa | 0 mm | - | - | - |
| 1777862936 | 6.67° C | 79% | 1017.4 hPa | 0 mm | - | - | - |
| 1777862634 | 6.67° C | 78% | 1017.5 hPa | 0 mm | - | - | - |
| 1777862334 | 6.67° C | 78% | 1017.4 hPa | 0 mm | - | - | - |
| 1777862034 | 6.67° C | 77% | 1017.3 hPa | 0 mm | - | - | - |
| 1777861137 | 7.22° C | 77% | 1017.5 hPa | 0 mm | - | - | - |
* Rain latest hour (hover to see other rain measurements)
** Current wind speed in m/s (hover to see current wind gust speed)